| time (UTC) | temp C | wind direction | speed KPH | gust KPH | rain 1hr cm | rain 24hr cm | rain mn cm | humidity % | barometer mb |
| 20260506101554 | 18 | 201 | 16.1 | 29.0 | 0.00 | 0.00 | 0.00 | 71 | 1008.2 |
| 20260506100047 | 18 | 225 | 12.9 | 27.4 | 0.00 | 0.00 | 0.00 | 71 | 1008.1 |
| 20260506094543 | 18 | 207 | 12.9 | 25.7 | 0.00 | 0.00 | 0.00 | 71 | 1008.0 |
| 20260506093046 | 18 | 173 | 12.9 | 20.9 | 0.00 | 0.00 | 0.00 | 70 | 1007.9 |
| 20260506091538 | 18 | 163 | 11.3 | 20.9 | 0.00 | 0.00 | 0.00 | 70 | 1008.0 |
| 20260506084557 | 18 | 196 | 12.9 | 29.0 | 0.00 | 0.00 | 0.00 | 69 | 1008.2 |
| 20260506083045 | 18 | 208 | 11.3 | 32.2 | 0.00 | 0.00 | 0.00 | 68 | 1008.3 |
| 20260506081548 | 19 | 171 | 16.1 | 30.6 | 0.00 | 0.00 | 0.00 | 68 | 1008.2 |
| 20260506073050 | 20 | 232 | 16.1 | 24.1 | 0.00 | 0.00 | 0.00 | 66 | 1008.3 |
| 20260506071552 | 20 | 151 | 17.7 | 29.0 | 0.00 | 0.00 | 0.00 | 65 | 1008.2 |
| 20260506061549 | 21 | 160 | 8.0 | 29.0 | 0.00 | 0.00 | 0.00 | 61 | 1008.8 |
| 20260506044531 | 22 | 186 | 14.5 | 38.6 | 0.00 | 0.00 | 0.00 | 56 | 1009.1 |
| 20260506043028 | 22 | 171 | 17.7 | 38.6 | 0.00 | 0.00 | 0.00 | 55 | 1008.7 |
| 20260506041544 | 22 | 183 | 17.7 | 41.8 | 0.00 | 0.00 | 0.00 | 54 | 1009.0 |
| 20260506040029 | 22 | 176 | 12.9 | 40.2 | 0.00 | 0.00 | 0.00 | 53 | 1009.0 |
| 20260506034543 | 23 | 197 | 20.9 | 40.2 | 0.00 | 0.00 | 0.00 | 52 | 1009.0 |
| 20260506033029 | 23 | 178 | 9.7 | 25.7 | 0.00 | 0.00 | 0.00 | 52 | 1009.0 |
| 20260506031529 | 22 | 157 | 11.3 | 29.0 | 0.00 | 0.00 | 0.00 | 52 | 1009.0 |
| 20260506030028 | 22 | 100 | 14.5 | 25.7 | 0.00 | 0.00 | 0.00 | 51 | 1009.0 |
| 20260506024529 | 23 | 193 | 16.1 | 29.0 | 0.00 | 0.00 | 0.00 | 50 | 1009.1 |
| 20260506023030 | 23 | 213 | 9.7 | 20.9 | 0.00 | 0.00 | 0.00 | 49 | 1009.3 |
| 20260506021529 | 23 | 134 | 9.7 | 25.7 | 0.00 | 0.00 | 0.00 | 48 | 1009.2 |
| 20260506020028 | 23 | 163 | 4.8 | 24.1 | 0.00 | 0.00 | 0.00 | 46 | 1009.3 |
| 20260506014528 | 24 | 196 | 11.3 | 20.9 | 0.00 | 0.00 | 0.00 | 45 | 1009.2 |
| 20260506013041 | 24 | 174 | 8.0 | 20.9 | 0.00 | 0.00 | 0.00 | 44 | 1009.1 |
| 20260506011531 | 25 | 184 | 8.0 | 20.9 | 0.00 | 0.00 | 0.00 | 42 | 1008.9 |
| 20260506010032 | 25 | 148 | 14.5 | 30.6 | 0.00 | 0.00 | 0.00 | 41 | 1008.7 |
| 20260506004527 | 25 | 200 | 14.5 | 27.4 | 0.00 | 0.00 | 0.00 | 40 | 1008.3 |
| 20260506003030 | 25 | 197 | 12.9 | 33.8 | 0.00 | 0.00 | 0.00 | 39 | 1008.6 |
| 20260506001529 | 25 | 202 | 14.5 | 25.7 | 0.00 | 0.00 | 0.00 | 38 | 1008.5 |
| 20260506000030 | 26 | 202 | 16.1 | 30.6 | 0.00 | 0.00 | 0.00 | 37 | 1008.5 |
| 20260505234529 | 26 | 190 | 14.5 | 27.4 | 0.00 | 0.00 | 0.00 | 36 | 1008.2 |
| 20260505233030 | 26 | 212 | 16.1 | 33.8 | 0.00 | 0.00 | 0.00 | 35 | 1008.0 |
| 20260505231531 | 26 | 182 | 22.5 | 33.8 | 0.00 | 0.00 | 0.00 | 33 | 1007.8 |
| 20260505230027 | 27 | 247 | 16.1 | 35.4 | 0.00 | 0.00 | 0.00 | 32 | 1007.9 |
| 20260505224530 | 27 | 198 | 24.1 | 35.4 | 0.00 | 0.00 | 0.00 | 31 | 1008.4 |
| 20260505223037 | 28 | 206 | 19.3 | 41.8 | 0.00 | 0.00 | 0.00 | 29 | 1008.0 |
| 20260505221528 | 28 | 235 | 25.7 | 40.2 | 0.00 | 0.00 | 0.00 | 28 | 1007.7 |
| 20260505220047 | 28 | 215 | 17.7 | 48.3 | 0.00 | 0.00 | 0.00 | 30 | 1007.8 |
| 20260505214535 | 28 | 232 | 19.3 | 33.8 | 0.00 | 0.00 | 0.00 | 29 | 1008.0 |
| 20260505213033 | 28 | 248 | 20.9 | 38.6 | 0.00 | 0.00 | 0.00 | 28 | 1007.9 |
| 20260505211531 | 28 | 223 | 30.6 | 49.9 | 0.00 | 0.00 | 0.00 | 26 | 1007.7 |
| 20260505210030 | 28 | 237 | 17.7 | 43.5 | 0.00 | 0.00 | 0.00 | 27 | 1007.8 |
| 20260505204530 | 28 | 217 | 27.4 | 53.1 | 0.00 | 0.00 | 0.00 | 26 | 1007.7 |
| 20260505203029 | 29 | 217 | 19.3 | 43.5 | 0.00 | 0.00 | 0.00 | 27 | 1007.8 |
| 20260505201532 | 28 | 199 | 22.5 | 45.1 | 0.00 | 0.00 | 0.00 | 28 | 1007.9 |
| 20260505200039 | 28 | 225 | 35.4 | 54.7 | 0.00 | 0.00 | 0.00 | 27 | 1007.9 |
| 20260505194538 | 28 | 220 | 16.1 | 41.8 | 0.00 | 0.00 | 0.00 | 28 | 1008.1 |
| 20260505193041 | 28 | 201 | 24.1 | 53.1 | 0.00 | 0.00 | 0.00 | 29 | 1008.1 |
| 20260505191537 | 28 | 212 | 25.7 | 51.5 | 0.00 | 0.00 | 0.00 | 28 | 1008.5 |
| 20260505190030 | 28 | 248 | 22.5 | 37.0 | 0.00 | 0.00 | 0.00 | 28 | 1009.1 |
| 20260505184533 | 28 | 252 | 16.1 | 43.5 | 0.00 | 0.00 | 0.00 | 30 | 1009.1 |
| 20260505183036 | 27 | 224 | 32.2 | 56.3 | 0.00 | 0.00 | 0.00 | 31 | 1009.1 |
| 20260505181541 | 27 | 177 | 27.4 | 40.2 | 0.00 | 0.00 | 0.00 | 31 | 1009.2 |
| 20260505180034 | 27 | 182 | 20.9 | 40.2 | 0.00 | 0.00 | 0.00 | 33 | 1009.6 |
| 20260505174533 | 27 | 194 | 19.3 | 45.1 | 0.00 | 0.00 | 0.00 | 34 | 1009.6 |
| 20260505173032 | 27 | 208 | 20.9 | 41.8 | 0.00 | 0.00 | 0.00 | 34 | 1009.7 |
| 20260505171532 | 27 | 198 | 17.7 | 29.0 | 0.00 | 0.00 | 0.00 | 35 | 1009.7 |
| 20260505170034 | 26 | 234 | 12.9 | 24.1 | 0.00 | 0.00 | 0.00 | 37 | 1009.8 |
| 20260505164530 | 26 | 244 | 24.1 | 40.2 | 0.00 | 0.00 | 0.00 | 37 | 1010.2 |
| 20260505163032 | 26 | 250 | 16.1 | 27.4 | 0.00 | 0.00 | 0.00 | 40 | 1010.6 |
| 20260505161542 | 25 | 241 | 22.5 | 38.6 | 0.00 | 0.00 | 0.00 | 40 | 1010.8 |
| 20260505153033 | 25 | 208 | 8.0 | 25.7 | 0.00 | 0.00 | 0.00 | 43 | 1011.2 |
| 20260505151529 | 24 | 240 | 16.1 | 38.6 | 0.00 | 0.00 | 0.00 | 44 | 1011.1 |
| 20260505124536 | 18 | 213 | 4.8 | 30.6 | 0.00 | 0.00 | 0.00 | 57 | 1011.2 |
| 20260505123035 | 18 | 185 | 11.3 | 22.5 | 0.00 | 0.00 | 0.00 | 57 | 1011.0 |
| 20260505121538 | 17 | 155 | 11.3 | 20.9 | 0.00 | 0.00 | 0.00 | 59 | 1011.0 |
| 20260505120043 | 17 | 220 | 12.9 | 22.5 | 0.00 | 0.00 | 0.00 | 59 | 1011.2 |
| 20260505114538 | 17 | 208 | 8.0 | 16.1 | 0.00 | 0.00 | 0.00 | 60 | 1010.9 |
| 20260505113036 | 17 | 230 | 6.4 | 19.3 | 0.00 | 0.00 | 0.00 | 61 | 1010.7 |
| 20260505111534 | 16 | 236 | 9.7 | 14.5 | 0.00 | 0.00 | 0.00 | 61 | 1010.5 |